Trabzon, Turkey

4:08 AM +03 on June 28, 2017 (GMT +0300)
Trabzon

Weather History for LTCG - January, 2013

Change the Weather History Date:

Thursday, January 24, 2013

  Actual Average Record
Temperature  
Mean Temperature 52 °F -  
Max Temperature 57 °F 49 °F 73 °F (2007)
Min Temperature 48 °F 38 °F 28 °F (2000)
Degree Days  
Heating Degree Days 12    
Growing Degree Days 2 (Base 50)    
Moisture  
Dew Point 44 °F    
Average Humidity 68    
Maximum Humidity 88    
Minimum Humidity 32    
Precipitation  
Precipitation 0.02 in - - ()
Sea Level Pressure  
Sea Level Pressure 30.02 in    
Wind  
Wind Speed 7 mph ()    
Max Wind Speed 17 mph    
Max Gust Speed 20 mph    
Visibility 6.5 miles    
Events Rain    
Averages and records for this station are not official NWS values.
T = Trace of Precipitation, MM = Missing Value Source: Averaged Metar Reports

Daily Weather History Graph

Daily Weather History Graph

Search for Another Location

Airport or City:

Trip Planner

Search our weather history database for the weather conditions in past years. The results will help you decide how hot, cold, wet, or windy it might be!

Date:

Astronomy

Jan. 24, 2013 Rise Set
Actual Time 6:38 AM EET 4:28 PM EET
Civil Twilight 6:08 AM EET 4:57 PM EET
Nautical Twilight 5:35 AM EET 5:31 PM EET
Astronomical Twilight 5:02 AM EET 6:03 PM EET
Moon 2:10 PM EET (1/24) 4:20 AM EET (1/24)
Length of Visible Light 10h 48m
Length of Day
9h 49m
Waxing Gibbous, 93% of the Moon is Illuminated
Jan 24
Waxing Gibbous
Jan 27
Full
Feb 3
Last Quarter
Feb 10
New
Feb 17
First Quarter

Hourly Weather History & Observations

Time (EET) Temp. Dew Point Humidity Pressure Visibility Wind Dir Wind Speed Gust Speed Precip Events Conditions
12:20 AM 62.6 °F 35.6 °F 37% 29.92 in 6.2 mi SSW 6.9 mph 19.6 mph N/A   Mostly Cloudy
12:50 AM 62.6 °F 37.4 °F 39% 29.95 in 6.2 mi SSW 9.2 mph - N/A   Mostly Cloudy
1:20 AM 60.8 °F 41.0 °F 48% 29.95 in 6.2 mi WNW 13.8 mph - N/A Rain Light Rain Showers
1:50 AM 60.8 °F 39.2 °F 45% 29.95 in 6.2 mi West 6.9 mph - N/A Rain Light Rain Showers
2:00 AM 61 °F 39 °F 32% 29.97 in 12 mi West 6.9 mph - - Rain Light Rain Showers
2:20 AM 60.8 °F 37.4 °F 42% 29.98 in 6.2 mi SW 9.2 mph - N/A   Mostly Cloudy
2:50 AM 53.6 °F 46.4 °F 77% 30.01 in 6.2 mi West 13.8 mph - N/A   Mostly Cloudy
3:20 AM 51.8 °F 46.4 °F 82% 30.01 in 6.2 mi West 17.3 mph - N/A   Mostly Cloudy
3:50 AM 53.6 °F 46.4 °F 77% 30.04 in 6.2 mi West 12.7 mph - N/A   Mostly Cloudy
4:20 AM 53.6 °F 46.4 °F 77% 30.04 in 6.2 mi West 6.9 mph - N/A Rain Light Rain Showers
4:50 AM 53.6 °F 46.4 °F 77% 30.04 in 6.2 mi Variable 2.3 mph - N/A Rain Light Rain Showers
5:20 AM 53.6 °F 46.4 °F 77% 30.06 in 6.2 mi ESE 2.3 mph - N/A   Mostly Cloudy
5:50 AM 53.6 °F 46.4 °F 77% 30.06 in 6.2 mi SE 8.1 mph - N/A   Mostly Cloudy
6:20 AM 53.6 °F 46.4 °F 77% 30.06 in 6.2 mi SE 5.8 mph - N/A   Mostly Cloudy
6:50 AM 53.6 °F 46.4 °F 77% 30.06 in 6.2 mi ESE 5.8 mph - N/A   Mostly Cloudy
7:20 AM 53.6 °F 44.6 °F 72% 30.06 in 6.2 mi Variable 3.5 mph 15.0 mph N/A Rain Light Rain Showers
7:50 AM 53.6 °F 46.4 °F 77% 30.09 in 6.2 mi Variable 2.3 mph - N/A Rain Light Rain Showers
8:00 AM 54 °F 46 °F 68% 30.10 in 12 mi WNW 2.3 mph - - Rain Light Rain Showers
8:20 AM 53.6 °F 48.2 °F 82% 30.09 in 6.2 mi SSW 5.8 mph - N/A Rain Light Rain Showers
8:50 AM 53.6 °F 50.0 °F 88% 30.09 in 5.6 mi SSE 5.8 mph - N/A Rain Light Rain Showers
9:20 AM 57.2 °F 48.2 °F 72% 30.09 in 6.2 mi SE 5.8 mph - N/A   Mostly Cloudy
9:50 AM 57.2 °F 46.4 °F 67% 30.09 in 6.2 mi East 8.1 mph - N/A   Mostly Cloudy
10:20 AM 57.2 °F 48.2 °F 72% 30.09 in 6.2 mi East 8.1 mph - N/A   Mostly Cloudy
10:50 AM 57.2 °F 48.2 °F 72% 30.09 in 6.2 mi East 8.1 mph - N/A   Mostly Cloudy
11:20 AM 53.6 °F 48.2 °F 82% 30.06 in 6.2 mi East 6.9 mph - N/A   Mostly Cloudy
11:50 AM 53.6 °F 48.2 °F 82% 30.06 in 6.2 mi ENE 5.8 mph - N/A   Mostly Cloudy
12:20 PM 55.4 °F 48.2 °F 77% 30.06 in 6.2 mi East 8.1 mph - N/A   Mostly Cloudy
12:50 PM 55.4 °F 48.2 °F 77% 30.04 in 6.2 mi East 9.2 mph - N/A   Mostly Cloudy
1:20 PM 55.4 °F 46.4 °F 72% 30.04 in 6.2 mi ESE 9.2 mph - N/A   Mostly Cloudy
1:50 PM 55.4 °F 46.4 °F 72% 30.04 in 6.2 mi ESE 9.2 mph - N/A   Mostly Cloudy
2:00 PM 55 °F 46 °F 63% 30.06 in 12 mi ESE 9.2 mph - -   Partly Cloudy
2:20 PM 55.4 °F 44.6 °F 67% 30.04 in 6.2 mi ESE 8.1 mph - N/A   Mostly Cloudy
2:50 PM 55.4 °F 44.6 °F 67% 30.04 in 6.2 mi ESE 6.9 mph - N/A   Mostly Cloudy
3:20 PM 55.4 °F 44.6 °F 67% 30.04 in 6.2 mi ESE 8.1 mph - N/A   Mostly Cloudy
3:50 PM 55.4 °F 42.8 °F 63% 30.04 in 6.2 mi ESE 8.1 mph - N/A   Mostly Cloudy
4:20 PM 53.6 °F 42.8 °F 67% 30.04 in 6.2 mi ESE 8.1 mph - N/A   Mostly Cloudy
4:50 PM 53.6 °F 42.8 °F 67% 30.01 in 6.2 mi SE 5.8 mph - N/A   Mostly Cloudy
5:20 PM 53.6 °F 41.0 °F 62% 30.01 in 6.2 mi SSE 6.9 mph - N/A   Mostly Cloudy
5:50 PM 53.6 °F 41.0 °F 62% 30.01 in 6.2 mi SSE 6.9 mph - N/A   Mostly Cloudy
6:20 PM 53.6 °F 41.0 °F 62% 30.01 in 6.2 mi South 5.8 mph - N/A   Mostly Cloudy
6:50 PM 51.8 °F 39.2 °F 62% 30.01 in 6.2 mi South 5.8 mph - N/A   Mostly Cloudy
7:20 PM 51.8 °F 39.2 °F 62% 29.98 in 6.2 mi South 4.6 mph - N/A   Mostly Cloudy
7:50 PM 50.0 °F 41.0 °F 71% 29.98 in 6.2 mi Calm Calm - N/A   Mostly Cloudy
8:00 PM 51 °F 40 °F 57% 29.99 in 6 mi Calm Calm - -   Mostly Cloudy
8:20 PM 51.8 °F 41.0 °F 67% 29.98 in 6.2 mi SSE 3.5 mph - N/A   Mostly Cloudy
8:50 PM 50.0 °F 41.0 °F 71% 29.98 in 6.2 mi Variable 1.2 mph - N/A   Mostly Cloudy
9:20 PM 48.2 °F 39.2 °F 71% 29.95 in 6.2 mi South 3.5 mph - N/A   Mostly Cloudy
9:50 PM 50.0 °F 41.0 °F 71% 29.95 in 6.2 mi South 3.5 mph - N/A   Mostly Cloudy
10:20 PM 48.2 °F 41.0 °F 76% 29.95 in 6.2 mi Variable 2.3 mph - N/A   Mostly Cloudy
10:50 PM 48.2 °F 41.0 °F 76% 29.95 in 6.2 mi SSE 4.6 mph - N/A   Mostly Cloudy
11:20 PM 48.2 °F 41.0 °F 76% 29.92 in 6.2 mi Variable 3.5 mph - N/A   Mostly Cloudy
11:50 PM 48.2 °F 41.0 °F 76% 29.92 in 6.2 mi NNW 4.6 mph - N/A   Mostly Cloudy